Location: Góry Miechowskie
(50.3599°N, 20.1803°E)
Time: 07:07:21
(UTC+00:00)

A-11 Canister half - Pass Details

Date: 17 September 2024
Orbit: 1515 x 1684 km, 47.2° (Epoch: 05 October)

Event Time Altitude Azimuth Distance (km) Brightness Sun altitude
Rises 00:18:31 0° 286° (WNW) 4,662 11.4 -32.9°
Enters shadow 00:19:05 - 285° (WNW) 4,516 11.3 -32.9°
Reaches altitude 10° 00:22:37 10° 271° (W) 3,680 - -32.6°
Maximum altitude 00:28:35 19° 230° (SW) 3,012 - -32.0°
Drops below altitude 10° 00:34:37 10° 189° (S) 3,714 - -31.5°
Sets 00:38:49 0° 173° (S) 4,719 - -31.1°
